Regional Weather Roundup
Issued by NWS

Home | Current Version | Previous Version | Graphics & Text | Print | Product List | Glossary On
Versions: 1 2 3 4 5 6 7 8 9 10 11 12 13 14 15 16 17 18 19 20 21 22 23 24 25 26 27 28
000
ASUS45 KCYS 252110
RWRWY

WYOMING REGIONAL WEATHER ROUNDUP
NATIONAL WEATHER SERVICE CHEYENNE WY
300 PM MDT WED APR 25 2018

NOTE:  "FAIR" INDICATES FEW OR NO CLOUDS BELOW 12,000 FEET
WITH NO SIGNIFICANT WEATHER AND/OR OBSTRUCTIONS TO VISIBILITY.

WYZ001-252200-
YELLOWSTONE NATIONAL PARK

CITY           SKY/WX    TMP DP  RH WIND       PRES   REMARKS
LK YELLOWSTONE   N/A     48  12  23 W9G21     30.21F
W YELLOWSTONE  NOT AVBL

$$
WYZ002>013-054>058-071-098>099-252200-
NORTHERN WYOMING

CITY           SKY/WX    TMP DP  RH WIND       PRES   REMARKS
JACKSON        FAIR      59  17  19 W14G20    30.18F
CODY           FAIR      65  13  13 NW12G23   30.05F
GREYBULL       FAIR      61  26  26 CALM      30.02F
WORLAND        FAIR      67  23  19 VRB5      29.98F
SHERIDAN       FAIR      72  25  17 N17       29.97R
BUFFALO        FAIR      70  13  11 MISG      29.97F
GILLETTE       FAIR      71  22  15 SW15      29.95F
HULETT         FAIR      68  30  24 SW16      29.98F
NEWCASTLE      FAIR      63  25  23 SE13G20   30.02F

$$
WYZ014>020-022>026-101>103-252200-
CENTRAL WYOMING

CITY           SKY/WX    TMP DP  RH WIND       PRES   REMARKS
BIG PINEY      FAIR      59  17  19 VRB7      30.19F
PINEDALE       FAIR      54  18  24 W7        30.21F
DUBOIS         FAIR      55   9  15 W23       30.13F
LANDER         FAIR      62  20  19 N6        30.05F
RIVERTON       FAIR      62  16  16 VRB3      30.06F
CASPER         FAIR      68  17  14 SW21G30   30.05F
DOUGLAS        FAIR      71  17  12 SW7G16    30.04F

$$
WYZ021-027>030-104>119-252200-
SOUTHERN WYOMING

CITY           SKY/WX    TMP DP  RH WIND       PRES   REMARKS
EVANSTON       FAIR      62  19  19 SW10G25   30.23F
KEMMERER       FAIR      59  18  20 W13G22    30.22F
FORT BRIDGER   FAIR      62  13  15 NW7       30.24F
ROCK SPRINGS   FAIR      61   8  12 W17G24    30.20F
DIXON          FAIR      62  16  16 SW7G20    30.23F
RAWLINS        FAIR      62   9  12 SW18G28   30.18F
SARATOGA       FAIR      63  14  15 E9        30.19F
LARAMIE        FAIR      60  16  18 VRB5      30.16F
CHEYENNE       FAIR      61  24  24 VRB3      30.14F
TORRINGTON     FAIR      67  29  24 VRB7      30.05F
PINE BLUFFS    FAIR      63  23  22 SW7G16    30.12F

$$




USA.gov is the U.S. government's official web portal to all federal, state and local government web resources and services.